owner,sensor,date,latitude,longitude,air_temperature,qcFlag 
ADCP,ioos:station:wmo:42390:1,2017-10-01T00:30:00Z,26.1290,-94.8980,28.9,11111222 
ADCP,ioos:station:wmo:42390:1,2017-10-01T01:30:00Z,26.1290,-94.8980,28.3,11111222 
ADCP,ioos:station:wmo:42390:1,2017-10-01T04:30:00Z,26.1290,-94.8980,28.3,11111222 
ADCP,ioos:station:wmo:42390:1,2017-10-01T07:30:00Z,26.1290,-94.8980,28.3,11111222 
ADCP,ioos:station:wmo:42390:1,2017-10-01T08:30:00Z,26.1290,-94.8980,28.3,11111222 
ADCP,ioos:station:wmo:42390:1,2017-10-01T10:30:00Z,26.1290,-94.8980,27.8,11111222 
ADCP,ioos:station:wmo:42390:1,2017-10-01T11:30:00Z,26.1290,-94.8980,27.8,11111222 
ADCP,ioos:station:wmo:42390:1,2017-10-01T12:30:00Z,26.1290,-94.8980,27.8,11111222 
ADCP,ioos:station:wmo:42390:1,2017-10-01T13:30:00Z,26.1290,-94.8980,27.2,11111222 
ADCP,ioos:station:wmo:42390:1,2017-10-01T14:30:00Z,26.1290,-94.8980,28.3,11111222 
ADCP,ioos:station:wmo:42390:1,2017-10-01T16:30:00Z,26.1290,-94.8980,28.3,11111222 
ADCP,ioos:station:wmo:42390:1,2017-10-01T17:30:00Z,26.1290,-94.8980,28.3,11111222 
ADCP,ioos:station:wmo:42390:1,2017-10-01T20:30:00Z,26.1290,-94.8980,28.3,11111222 
ADCP,ioos:station:wmo:42390:1,2017-10-01T21:30:00Z,26.1290,-94.8980,28.3,11111222 
ADCP,ioos:station:wmo:42390:1,2017-10-01T22:30:00Z,26.1290,-94.8980,28.3,11111222 
ADCP,ioos:station:wmo:42390:1,2017-10-01T23:30:00Z,26.1290,-94.8980,28.3,11111222 
ADCP,ioos:station:wmo:42390:1,2017-10-02T00:30:00Z,26.1290,-94.8980,28.3,11111222 
ADCP,ioos:station:wmo:42390:1,2017-10-02T02:30:00Z,26.1290,-94.8980,28.3,11111222 
ADCP,ioos:station:wmo:42390:1,2017-10-02T03:30:00Z,26.1290,-94.8980,28.3,11111222 
ADCP,ioos:station:wmo:42390:1,2017-10-02T04:30:00Z,26.1290,-94.8980,28.3,11111222 
ADCP,ioos:station:wmo:42390:1,2017-10-02T05:30:00Z,26.1290,-94.8980,27.8,11111222 
ADCP,ioos:station:wmo:42390:1,2017-10-02T06:30:00Z,26.1290,-94.8980,27.8,11111222 
ADCP,ioos:station:wmo:42390:1,2017-10-02T07:30:00Z,26.1290,-94.8980,27.8,11111222 
ADCP,ioos:station:wmo:42390:1,2017-10-02T08:30:00Z,26.1290,-94.8980,27.8,11111222 
ADCP,ioos:station:wmo:42390:1,2017-10-02T09:30:00Z,26.1290,-94.8980,27.8,11111222 
ADCP,ioos:station:wmo:42390:1,2017-10-02T10:30:00Z,26.1290,-94.8980,27.8,11111222 
ADCP,ioos:station:wmo:42390:1,2017-10-02T11:30:00Z,26.1290,-94.8980,27.8,11111222 
ADCP,ioos:station:wmo:42390:1,2017-10-02T14:30:00Z,26.1290,-94.8980,28.3,11111222 
ADCP,ioos:station:wmo:42390:1,2017-10-02T15:30:00Z,26.1290,-94.8980,28.3,11111222 
ADCP,ioos:station:wmo:42390:1,2017-10-02T16:30:00Z,26.1290,-94.8980,28.3,11111222 
ADCP,ioos:station:wmo:42390:1,2017-10-02T17:30:00Z,26.1290,-94.8980,28.3,11111222 
ADCP,ioos:station:wmo:42390:1,2017-10-02T18:30:00Z,26.1290,-94.8980,28.3,11111222 
ADCP,ioos:station:wmo:42390:1,2017-10-02T19:30:00Z,26.1290,-94.8980,28.3,11111222 
ADCP,ioos:station:wmo:42390:1,2017-10-02T20:30:00Z,26.1290,-94.8980,28.3,11111222 
ADCP,ioos:station:wmo:42390:1,2017-10-02T21:30:00Z,26.1290,-94.8980,28.3,11111222 
ADCP,ioos:station:wmo:42390:1,2017-10-02T22:30:00Z,26.1290,-94.8980,28.3,11111222 
ADCP,ioos:station:wmo:42390:1,2017-10-02T23:30:00Z,26.1290,-94.8980,28.3,11111222 
ADCP,ioos:station:wmo:42390:1,2017-10-03T01:30:00Z,26.1290,-94.8980,28.3,11111222 
ADCP,ioos:station:wmo:42390:1,2017-10-03T03:30:00Z,26.1290,-94.8980,28.3,11111222 
ADCP,ioos:station:wmo:42390:1,2017-10-03T04:30:00Z,26.1290,-94.8980,28.3,11111222 
ADCP,ioos:station:wmo:42390:1,2017-10-03T07:30:00Z,26.1290,-94.8980,28.9,11111222 
ADCP,ioos:station:wmo:42390:1,2017-10-03T08:30:00Z,26.1290,-94.8980,28.9,11111222 
ADCP,ioos:station:wmo:42390:1,2017-10-03T09:30:00Z,26.1290,-94.8980,28.9,11111222 
ADCP,ioos:station:wmo:42390:1,2017-10-03T11:30:00Z,26.1290,-94.8980,28.9,11111222 
ADCP,ioos:station:wmo:42390:1,2017-10-03T12:30:00Z,26.1290,-94.8980,28.9,11111222 
ADCP,ioos:station:wmo:42390:1,2017-10-03T14:30:00Z,26.1290,-94.8980,29.4,11111222 
ADCP,ioos:station:wmo:42390:1,2017-10-03T15:30:00Z,26.1290,-94.8980,28.9,11111222 
ADCP,ioos:station:wmo:42390:1,2017-10-03T16:30:00Z,26.1290,-94.8980,28.9,11111222 
ADCP,ioos:station:wmo:42390:1,2017-10-03T17:30:00Z,26.1290,-94.8980,29.4,11111222 
ADCP,ioos:station:wmo:42390:1,2017-10-03T20:30:00Z,26.1290,-94.8980,29.4,11111222 
ADCP,ioos:station:wmo:42390:1,2017-10-03T22:30:00Z,26.1290,-94.8980,28.3,11111222 
ADCP,ioos:station:wmo:42390:1,2017-10-03T23:30:00Z,26.1290,-94.8980,28.9,11111222 
ADCP,ioos:station:wmo:42390:1,2017-10-04T01:30:00Z,26.1290,-94.8980,28.9,11111222 
ADCP,ioos:station:wmo:42390:1,2017-10-04T03:30:00Z,26.1290,-94.8980,28.9,11111222 
ADCP,ioos:station:wmo:42390:1,2017-10-04T04:30:00Z,26.1290,-94.8980,28.9,11111222 
ADCP,ioos:station:wmo:42390:1,2017-10-04T05:30:00Z,26.1290,-94.8980,28.9,11111222 
ADCP,ioos:station:wmo:42390:1,2017-10-04T06:30:00Z,26.1290,-94.8980,28.3,11111222 
ADCP,ioos:station:wmo:42390:1,2017-10-04T08:30:00Z,26.1290,-94.8980,28.3,11111222 
ADCP,ioos:station:wmo:42390:1,2017-10-04T11:30:00Z,26.1290,-94.8980,28.3,11111222 
ADCP,ioos:station:wmo:42390:1,2017-10-04T13:30:00Z,26.1290,-94.8980,28.9,11111222 
ADCP,ioos:station:wmo:42390:1,2017-10-04T14:30:00Z,26.1290,-94.8980,28.9,11111222 
ADCP,ioos:station:wmo:42390:1,2017-10-04T15:30:00Z,26.1290,-94.8980,28.9,11111222 
ADCP,ioos:station:wmo:42390:1,2017-10-04T16:30:00Z,26.1290,-94.8980,28.9,11111222 
ADCP,ioos:station:wmo:42390:1,2017-10-04T17:30:00Z,26.1290,-94.8980,28.9,11111222 
ADCP,ioos:station:wmo:42390:1,2017-10-04T18:30:00Z,26.1290,-94.8980,28.3,11111222 
ADCP,ioos:station:wmo:42390:1,2017-10-04T19:30:00Z,26.1290,-94.8980,28.9,11111222 
ADCP,ioos:station:wmo:42390:1,2017-10-04T20:30:00Z,26.1290,-94.8980,28.3,11111222 
ADCP,ioos:station:wmo:42390:1,2017-10-04T21:30:00Z,26.1290,-94.8980,27.8,11111222 
ADCP,ioos:station:wmo:42390:1,2017-10-04T22:30:00Z,26.1290,-94.8980,27.8,11111222 
ADCP,ioos:station:wmo:42390:1,2017-10-04T23:30:00Z,26.1290,-94.8980,27.8,11111222 
ADCP,ioos:station:wmo:42390:1,2017-10-05T01:30:00Z,26.1290,-94.8980,28.3,11111222 
ADCP,ioos:station:wmo:42390:1,2017-10-05T04:30:00Z,26.1290,-94.8980,28.3,11111222 
ADCP,ioos:station:wmo:42390:1,2017-10-05T06:30:00Z,26.1290,-94.8980,28.9,11111222 
ADCP,ioos:station:wmo:42390:1,2017-10-05T07:30:00Z,26.1290,-94.8980,28.3,11111222 
ADCP,ioos:station:wmo:42390:1,2017-10-05T08:30:00Z,26.1290,-94.8980,28.3,11111222 
ADCP,ioos:station:wmo:42390:1,2017-10-05T09:30:00Z,26.1290,-94.8980,28.3,11111222 
ADCP,ioos:station:wmo:42390:1,2017-10-05T10:30:00Z,26.1290,-94.8980,28.3,11111222 
ADCP,ioos:station:wmo:42390:1,2017-10-05T11:30:00Z,26.1290,-94.8980,28.3,11111222 
ADCP,ioos:station:wmo:42390:1,2017-10-05T12:30:00Z,26.1290,-94.8980,28.3,11111222 
ADCP,ioos:station:wmo:42390:1,2017-10-05T13:30:00Z,26.1290,-94.8980,28.3,11111222 
ADCP,ioos:station:wmo:42390:1,2017-10-05T14:30:00Z,26.1290,-94.8980,28.3,11111222 
ADCP,ioos:station:wmo:42390:1,2017-10-05T15:30:00Z,26.1290,-94.8980,28.3,11111222 
ADCP,ioos:station:wmo:42390:1,2017-10-05T18:30:00Z,26.1290,-94.8980,28.3,11111222 
ADCP,ioos:station:wmo:42390:1,2017-10-05T22:30:00Z,26.1290,-94.8980,28.3,11111222 
ADCP,ioos:station:wmo:42390:1,2017-10-05T23:30:00Z,26.1290,-94.8980,27.8,11111222 
ADCP,ioos:station:wmo:42390:1,2017-10-06T00:30:00Z,26.1290,-94.8980,27.8,11111222 
ADCP,ioos:station:wmo:42390:1,2017-10-06T01:30:00Z,26.1290,-94.8980,28.3,11111222 
ADCP,ioos:station:wmo:42390:1,2017-10-06T02:30:00Z,26.1290,-94.8980,28.3,11111222 
ADCP,ioos:station:wmo:42390:1,2017-10-06T04:30:00Z,26.1290,-94.8980,27.8,11111222 
ADCP,ioos:station:wmo:42390:1,2017-10-06T06:30:00Z,26.1290,-94.8980,27.8,11111222 
ADCP,ioos:station:wmo:42390:1,2017-10-06T07:30:00Z,26.1290,-94.8980,27.8,11111222 
ADCP,ioos:station:wmo:42390:1,2017-10-06T08:30:00Z,26.1290,-94.8980,27.8,11111222 
ADCP,ioos:station:wmo:42390:1,2017-10-06T09:30:00Z,26.1290,-94.8980,27.8,11111222 
ADCP,ioos:station:wmo:42390:1,2017-10-06T10:30:00Z,26.1290,-94.8980,27.8,11111222 
ADCP,ioos:station:wmo:42390:1,2017-10-06T11:30:00Z,26.1290,-94.8980,27.2,11111222 
ADCP,ioos:station:wmo:42390:1,2017-10-06T12:30:00Z,26.1290,-94.8980,27.2,11111222 
ADCP,ioos:station:wmo:42390:1,2017-10-06T13:30:00Z,26.1290,-94.8980,27.8,11111222 
ADCP,ioos:station:wmo:42390:1,2017-10-06T14:30:00Z,26.1290,-94.8980,27.8,11111222 
ADCP,ioos:station:wmo:42390:1,2017-10-06T16:30:00Z,26.1290,-94.8980,27.8,11111222 
ADCP,ioos:station:wmo:42390:1,2017-10-06T17:30:00Z,26.1290,-94.8980,27.8,11111222 
ADCP,ioos:station:wmo:42390:1,2017-10-06T18:30:00Z,26.1290,-94.8980,27.8,11111222 
ADCP,ioos:station:wmo:42390:1,2017-10-06T19:30:00Z,26.1290,-94.8980,27.8,11111222 
ADCP,ioos:station:wmo:42390:1,2017-10-06T20:30:00Z,26.1290,-94.8980,27.8,11111222 
ADCP,ioos:station:wmo:42390:1,2017-10-06T21:30:00Z,26.1290,-94.8980,27.8,11111222 
ADCP,ioos:station:wmo:42390:1,2017-10-06T22:30:00Z,26.1290,-94.8980,27.8,11111222 
ADCP,ioos:station:wmo:42390:1,2017-10-07T00:30:00Z,26.1290,-94.8980,27.8,11111222 
ADCP,ioos:station:wmo:42390:1,2017-10-07T01:30:00Z,26.1290,-94.8980,27.8,11111222 
ADCP,ioos:station:wmo:42390:1,2017-10-07T03:30:00Z,26.1290,-94.8980,27.8,11111222 
ADCP,ioos:station:wmo:42390:1,2017-10-07T04:30:00Z,26.1290,-94.8980,26.7,11111222 
ADCP,ioos:station:wmo:42390:1,2017-10-07T05:30:00Z,26.1290,-94.8980,27.2,11111222 
ADCP,ioos:station:wmo:42390:1,2017-10-07T08:30:00Z,26.1290,-94.8980,27.8,11111222 
ADCP,ioos:station:wmo:42390:1,2017-10-07T09:30:00Z,26.1290,-94.8980,28.3,11111222 
ADCP,ioos:station:wmo:42390:1,2017-10-07T10:30:00Z,26.1290,-94.8980,28.3,11111222 
ADCP,ioos:station:wmo:42390:1,2017-10-07T11:30:00Z,26.1290,-94.8980,28.3,11111222 
ADCP,ioos:station:wmo:42390:1,2017-10-07T12:30:00Z,26.1290,-94.8980,28.3,11111222 
ADCP,ioos:station:wmo:42390:1,2017-10-07T13:30:00Z,26.1290,-94.8980,28.3,11111222 
ADCP,ioos:station:wmo:42390:1,2017-10-07T15:30:00Z,26.1290,-94.8980,28.3,11111222 
ADCP,ioos:station:wmo:42390:1,2017-10-07T16:30:00Z,26.1290,-94.8980,28.3,11111222 
ADCP,ioos:station:wmo:42390:1,2017-10-07T17:30:00Z,26.1290,-94.8980,28.9,11111222 
ADCP,ioos:station:wmo:42390:1,2017-10-07T18:30:00Z,26.1290,-94.8980,28.9,11111222 
ADCP,ioos:station:wmo:42390:1,2017-10-07T20:30:00Z,26.1290,-94.8980,28.9,11111222 
ADCP,ioos:station:wmo:42390:1,2017-10-07T21:30:00Z,26.1290,-94.8980,28.9,11111222 
ADCP,ioos:station:wmo:42390:1,2017-10-07T22:30:00Z,26.1290,-94.8980,28.9,11111222 
ADCP,ioos:station:wmo:42390:1,2017-10-08T00:30:00Z,26.1290,-94.8980,28.3,11111222 
ADCP,ioos:station:wmo:42390:1,2017-10-08T01:30:00Z,26.1290,-94.8980,28.3,11111222 
ADCP,ioos:station:wmo:42390:1,2017-10-08T02:30:00Z,26.1290,-94.8980,28.3,11111222 
ADCP,ioos:station:wmo:42390:1,2017-10-08T03:30:00Z,26.1290,-94.8980,28.3,11111222 
ADCP,ioos:station:wmo:42390:1,2017-10-08T04:30:00Z,26.1290,-94.8980,28.3,11111222 
ADCP,ioos:station:wmo:42390:1,2017-10-08T05:30:00Z,26.1290,-94.8980,27.8,11111222 
ADCP,ioos:station:wmo:42390:1,2017-10-08T06:30:00Z,26.1290,-94.8980,28.3,11111222 
ADCP,ioos:station:wmo:42390:1,2017-10-08T07:30:00Z,26.1290,-94.8980,28.3,11111222 
ADCP,ioos:station:wmo:42390:1,2017-10-08T08:30:00Z,26.1290,-94.8980,28.3,11111222 
ADCP,ioos:station:wmo:42390:1,2017-10-08T09:30:00Z,26.1290,-94.8980,28.9,11111222 
ADCP,ioos:station:wmo:42390:1,2017-10-08T10:30:00Z,26.1290,-94.8980,28.3,11111222 
ADCP,ioos:station:wmo:42390:1,2017-10-08T12:30:00Z,26.1290,-94.8980,29.4,11111222 
ADCP,ioos:station:wmo:42390:1,2017-10-08T13:30:00Z,26.1290,-94.8980,28.9,11111222 
ADCP,ioos:station:wmo:42390:1,2017-10-08T15:30:00Z,26.1290,-94.8980,30.6,11111222 
ADCP,ioos:station:wmo:42390:1,2017-10-08T16:30:00Z,26.1290,-94.8980,31.7,11111222 
ADCP,ioos:station:wmo:42390:1,2017-10-08T17:30:00Z,26.1290,-94.8980,31.1,11111222 
ADCP,ioos:station:wmo:42390:1,2017-10-08T18:30:00Z,26.1290,-94.8980,31.1,11111222 
ADCP,ioos:station:wmo:42390:1,2017-10-08T20:30:00Z,26.1290,-94.8980,30.0,11111222 
ADCP,ioos:station:wmo:42390:1,2017-10-08T21:30:00Z,26.1290,-94.8980,30.0,11111222 
ADCP,ioos:station:wmo:42390:1,2017-10-08T22:30:00Z,26.1290,-94.8980,30.0,11111222 
ADCP,ioos:station:wmo:42390:1,2017-10-08T23:30:00Z,26.1290,-94.8980,30.6,11111222 
ADCP,ioos:station:wmo:42390:1,2017-10-09T00:30:00Z,26.1290,-94.8980,30.0,11111222 
ADCP,ioos:station:wmo:42390:1,2017-10-09T01:30:00Z,26.1290,-94.8980,30.0,11111222 
ADCP,ioos:station:wmo:42390:1,2017-10-09T02:30:00Z,26.1290,-94.8980,31.7,11111222 
ADCP,ioos:station:wmo:42390:1,2017-10-09T03:30:00Z,26.1290,-94.8980,32.2,11111222 
ADCP,ioos:station:wmo:42390:1,2017-10-09T04:30:00Z,26.1290,-94.8980,28.3,11111222 
ADCP,ioos:station:wmo:42390:1,2017-10-09T05:30:00Z,26.1290,-94.8980,28.3,11111222 
ADCP,ioos:station:wmo:42390:1,2017-10-09T06:30:00Z,26.1290,-94.8980,28.3,11111222 
ADCP,ioos:station:wmo:42390:1,2017-10-09T07:30:00Z,26.1290,-94.8980,28.9,11111222 
ADCP,ioos:station:wmo:42390:1,2017-10-09T08:30:00Z,26.1290,-94.8980,28.3,11111222 
ADCP,ioos:station:wmo:42390:1,2017-10-09T10:30:00Z,26.1290,-94.8980,28.3,11111222 
ADCP,ioos:station:wmo:42390:1,2017-10-09T11:30:00Z,26.1290,-94.8980,28.3,11111222 
ADCP,ioos:station:wmo:42390:1,2017-10-09T13:30:00Z,26.1290,-94.8980,28.3,11111222 
ADCP,ioos:station:wmo:42390:1,2017-10-09T14:30:00Z,26.1290,-94.8980,28.9,11111222 
ADCP,ioos:station:wmo:42390:1,2017-10-09T15:30:00Z,26.1290,-94.8980,28.9,11111222 
ADCP,ioos:station:wmo:42390:1,2017-10-09T16:30:00Z,26.1290,-94.8980,28.9,11111222 
ADCP,ioos:station:wmo:42390:1,2017-10-09T17:30:00Z,26.1290,-94.8980,28.9,11111222 
ADCP,ioos:station:wmo:42390:1,2017-10-09T18:30:00Z,26.1290,-94.8980,28.9,11111222 
ADCP,ioos:station:wmo:42390:1,2017-10-09T19:30:00Z,26.1290,-94.8980,28.9,11111222 
ADCP,ioos:station:wmo:42390:1,2017-10-09T20:30:00Z,26.1290,-94.8980,28.9,11111222 
ADCP,ioos:station:wmo:42390:1,2017-10-09T21:30:00Z,26.1290,-94.8980,28.9,11111222 
ADCP,ioos:station:wmo:42390:1,2017-10-09T22:30:00Z,26.1290,-94.8980,28.9,11111222 
ADCP,ioos:station:wmo:42390:1,2017-10-10T00:30:00Z,26.1290,-94.8980,28.9,11111222 
ADCP,ioos:station:wmo:42390:1,2017-10-10T01:30:00Z,26.1290,-94.8980,28.9,11111222 
ADCP,ioos:station:wmo:42390:1,2017-10-10T03:30:00Z,26.1290,-94.8980,28.9,11111222 
ADCP,ioos:station:wmo:42390:1,2017-10-10T05:30:00Z,26.1290,-94.8980,28.9,11111222 
ADCP,ioos:station:wmo:42390:1,2017-10-10T07:30:00Z,26.1290,-94.8980,28.9,11111222 
ADCP,ioos:station:wmo:42390:1,2017-10-10T08:30:00Z,26.1290,-94.8980,28.9,11111222 
ADCP,ioos:station:wmo:42390:1,2017-10-10T09:30:00Z,26.1290,-94.8980,28.9,11111222 
ADCP,ioos:station:wmo:42390:1,2017-10-10T10:30:00Z,26.1290,-94.8980,28.3,11111222 
ADCP,ioos:station:wmo:42390:1,2017-10-10T11:30:00Z,26.1290,-94.8980,28.9,11111222 
ADCP,ioos:station:wmo:42390:1,2017-10-10T12:30:00Z,26.1290,-94.8980,28.9,11111222 
ADCP,ioos:station:wmo:42390:1,2017-10-10T15:30:00Z,26.1290,-94.8980,28.9,11111222 
ADCP,ioos:station:wmo:42390:1,2017-10-10T16:30:00Z,26.1290,-94.8980,28.9,11111222 
ADCP,ioos:station:wmo:42390:1,2017-10-10T17:30:00Z,26.1290,-94.8980,28.9,11111222 
ADCP,ioos:station:wmo:42390:1,2017-10-10T18:30:00Z,26.1290,-94.8980,28.9,11111222 
ADCP,ioos:station:wmo:42390:1,2017-10-10T19:30:00Z,26.1290,-94.8980,28.9,11111222 
ADCP,ioos:station:wmo:42390:1,2017-10-10T21:30:00Z,26.1290,-94.8980,28.9,11111222 
ADCP,ioos:station:wmo:42390:1,2017-10-10T22:30:00Z,26.1290,-94.8980,28.9,11111222 
ADCP,ioos:station:wmo:42390:1,2017-10-10T23:30:00Z,26.1290,-94.8980,28.9,11111222 
ADCP,ioos:station:wmo:42390:1,2017-10-11T00:30:00Z,26.1290,-94.8980,28.9,11111222 
ADCP,ioos:station:wmo:42390:1,2017-10-11T01:30:00Z,26.1290,-94.8980,28.3,11111222 
ADCP,ioos:station:wmo:42390:1,2017-10-11T02:30:00Z,26.1290,-94.8980,28.3,11111222 
ADCP,ioos:station:wmo:42390:1,2017-10-11T04:30:00Z,26.1290,-94.8980,28.3,11111222 
ADCP,ioos:station:wmo:42390:1,2017-10-11T06:30:00Z,26.1290,-94.8980,28.3,11111222 
ADCP,ioos:station:wmo:42390:1,2017-10-11T07:30:00Z,26.1290,-94.8980,28.3,11111222 
ADCP,ioos:station:wmo:42390:1,2017-10-11T08:30:00Z,26.1290,-94.8980,28.3,11111222 
ADCP,ioos:station:wmo:42390:1,2017-10-11T10:30:00Z,26.1290,-94.8980,28.3,11111222 
ADCP,ioos:station:wmo:42390:1,2017-10-11T13:30:00Z,26.1290,-94.8980,28.3,11111222 
ADCP,ioos:station:wmo:42390:1,2017-10-11T14:30:00Z,26.1290,-94.8980,28.9,11111222 
ADCP,ioos:station:wmo:42390:1,2017-10-11T15:30:00Z,26.1290,-94.8980,28.9,11111222 
ADCP,ioos:station:wmo:42390:1,2017-10-11T16:30:00Z,26.1290,-94.8980,28.9,11111222 
ADCP,ioos:station:wmo:42390:1,2017-10-11T18:30:00Z,26.1290,-94.8980,28.3,11111222 
ADCP,ioos:station:wmo:42390:1,2017-10-11T19:30:00Z,26.1290,-94.8980,27.8,11111222 
ADCP,ioos:station:wmo:42390:1,2017-10-11T20:30:00Z,26.1290,-94.8980,28.3,11111222 
ADCP,ioos:station:wmo:42390:1,2017-10-11T22:30:00Z,26.1290,-94.8980,28.3,11111222 
ADCP,ioos:station:wmo:42390:1,2017-10-12T01:30:00Z,26.1290,-94.8980,28.3,11111222 
ADCP,ioos:station:wmo:42390:1,2017-10-12T02:30:00Z,26.1290,-94.8980,28.3,11111222 
ADCP,ioos:station:wmo:42390:1,2017-10-12T03:30:00Z,26.1290,-94.8980,28.3,11111222 
ADCP,ioos:station:wmo:42390:1,2017-10-12T04:30:00Z,26.1290,-94.8980,28.3,11111222 
ADCP,ioos:station:wmo:42390:1,2017-10-12T07:30:00Z,26.1290,-94.8980,28.3,11111222 
ADCP,ioos:station:wmo:42390:1,2017-10-12T08:30:00Z,26.1290,-94.8980,28.3,11111222 
ADCP,ioos:station:wmo:42390:1,2017-10-12T09:30:00Z,26.1290,-94.8980,27.8,11111222 
ADCP,ioos:station:wmo:42390:1,2017-10-12T10:30:00Z,26.1290,-94.8980,27.8,11111222 
ADCP,ioos:station:wmo:42390:1,2017-10-12T11:30:00Z,26.1290,-94.8980,27.8,11111222 
ADCP,ioos:station:wmo:42390:1,2017-10-12T14:30:00Z,26.1290,-94.8980,28.3,11111222 
ADCP,ioos:station:wmo:42390:1,2017-10-12T15:30:00Z,26.1290,-94.8980,28.3,11111222 
ADCP,ioos:station:wmo:42390:1,2017-10-12T16:30:00Z,26.1290,-94.8980,28.3,11111222 
ADCP,ioos:station:wmo:42390:1,2017-10-12T17:30:00Z,26.1290,-94.8980,28.3,11111222 
ADCP,ioos:station:wmo:42390:1,2017-10-12T18:30:00Z,26.1290,-94.8980,28.3,11111222 
ADCP,ioos:station:wmo:42390:1,2017-10-12T19:30:00Z,26.1290,-94.8980,28.3,11111222 
ADCP,ioos:station:wmo:42390:1,2017-10-12T20:30:00Z,26.1290,-94.8980,28.3,11111222 
ADCP,ioos:station:wmo:42390:1,2017-10-12T21:30:00Z,26.1290,-94.8980,28.3,11111222 
ADCP,ioos:station:wmo:42390:1,2017-10-12T22:30:00Z,26.1290,-94.8980,28.3,11111222 
ADCP,ioos:station:wmo:42390:1,2017-10-12T23:30:00Z,26.1290,-94.8980,28.3,11111222 
ADCP,ioos:station:wmo:42390:1,2017-10-13T00:30:00Z,26.1290,-94.8980,28.3,11111222 
ADCP,ioos:station:wmo:42390:1,2017-10-13T02:30:00Z,26.1290,-94.8980,28.3,11111222 
ADCP,ioos:station:wmo:42390:1,2017-10-13T03:30:00Z,26.1290,-94.8980,28.3,11111222 
ADCP,ioos:station:wmo:42390:1,2017-10-13T04:30:00Z,26.1290,-94.8980,28.3,11111222 
ADCP,ioos:station:wmo:42390:1,2017-10-13T05:30:00Z,26.1290,-94.8980,28.3,11111222 
ADCP,ioos:station:wmo:42390:1,2017-10-13T06:30:00Z,26.1290,-94.8980,28.3,11111222 
ADCP,ioos:station:wmo:42390:1,2017-10-13T07:30:00Z,26.1290,-94.8980,28.3,11111222 
ADCP,ioos:station:wmo:42390:1,2017-10-13T08:30:00Z,26.1290,-94.8980,28.3,11111222 
ADCP,ioos:station:wmo:42390:1,2017-10-13T09:30:00Z,26.1290,-94.8980,28.3,11111222 
ADCP,ioos:station:wmo:42390:1,2017-10-13T10:30:00Z,26.1290,-94.8980,28.3,11111222 
ADCP,ioos:station:wmo:42390:1,2017-10-13T11:30:00Z,26.1290,-94.8980,28.3,11111222 
ADCP,ioos:station:wmo:42390:1,2017-10-13T12:30:00Z,26.1290,-94.8980,28.3,11111222 
ADCP,ioos:station:wmo:42390:1,2017-10-13T13:30:00Z,26.1290,-94.8980,28.3,11111222 
ADCP,ioos:station:wmo:42390:1,2017-10-13T15:30:00Z,26.1290,-94.8980,28.3,11111222 
ADCP,ioos:station:wmo:42390:1,2017-10-13T16:30:00Z,26.1290,-94.8980,27.8,11111222 
ADCP,ioos:station:wmo:42390:1,2017-10-13T17:30:00Z,26.1290,-94.8980,27.8,11111222 
ADCP,ioos:station:wmo:42390:1,2017-10-13T18:30:00Z,26.1290,-94.8980,27.8,11111222 
ADCP,ioos:station:wmo:42390:1,2017-10-13T20:30:00Z,26.1290,-94.8980,28.3,11111222 
ADCP,ioos:station:wmo:42390:1,2017-10-13T22:30:00Z,26.1290,-94.8980,28.3,11111222 
ADCP,ioos:station:wmo:42390:1,2017-10-13T23:30:00Z,26.1290,-94.8980,28.3,11111222 
ADCP,ioos:station:wmo:42390:1,2017-10-14T00:30:00Z,26.1290,-94.8980,28.3,11111222 
ADCP,ioos:station:wmo:42390:1,2017-10-14T01:30:00Z,26.1290,-94.8980,27.8,11111222 
ADCP,ioos:station:wmo:42390:1,2017-10-14T03:30:00Z,26.1290,-94.8980,28.3,11111222 
ADCP,ioos:station:wmo:42390:1,2017-10-14T04:30:00Z,26.1290,-94.8980,28.3,11111222 
ADCP,ioos:station:wmo:42390:1,2017-10-14T05:30:00Z,26.1290,-94.8980,28.3,11111222 
ADCP,ioos:station:wmo:42390:1,2017-10-14T06:30:00Z,26.1290,-94.8980,28.3,11111222 
ADCP,ioos:station:wmo:42390:1,2017-10-14T07:30:00Z,26.1290,-94.8980,28.3,11111222 
ADCP,ioos:station:wmo:42390:1,2017-10-14T08:30:00Z,26.1290,-94.8980,27.8,11111222 
ADCP,ioos:station:wmo:42390:1,2017-10-14T09:30:00Z,26.1290,-94.8980,27.8,11111222 
ADCP,ioos:station:wmo:42390:1,2017-10-14T10:30:00Z,26.1290,-94.8980,27.8,11111222 
ADCP,ioos:station:wmo:42390:1,2017-10-14T11:30:00Z,26.1290,-94.8980,27.8,11111222 
ADCP,ioos:station:wmo:42390:1,2017-10-14T12:30:00Z,26.1290,-94.8980,27.8,11111222 
ADCP,ioos:station:wmo:42390:1,2017-10-14T13:30:00Z,26.1290,-94.8980,27.8,11111222 
ADCP,ioos:station:wmo:42390:1,2017-10-14T14:30:00Z,26.1290,-94.8980,28.3,11111222 
ADCP,ioos:station:wmo:42390:1,2017-10-14T15:30:00Z,26.1290,-94.8980,28.3,11111222 
ADCP,ioos:station:wmo:42390:1,2017-10-14T16:30:00Z,26.1290,-94.8980,28.3,11111222 
ADCP,ioos:station:wmo:42390:1,2017-10-14T17:30:00Z,26.1290,-94.8980,28.3,11111222 
ADCP,ioos:station:wmo:42390:1,2017-10-14T18:30:00Z,26.1290,-94.8980,28.3,11111222 
ADCP,ioos:station:wmo:42390:1,2017-10-14T20:30:00Z,26.1290,-94.8980,28.3,11111222 
ADCP,ioos:station:wmo:42390:1,2017-10-14T21:30:00Z,26.1290,-94.8980,28.3,11111222 
ADCP,ioos:station:wmo:42390:1,2017-10-14T22:30:00Z,26.1290,-94.8980,28.3,11111222 
ADCP,ioos:station:wmo:42390:1,2017-10-14T23:30:00Z,26.1290,-94.8980,28.3,11111222 
ADCP,ioos:station:wmo:42390:1,2017-10-15T00:30:00Z,26.1290,-94.8980,27.8,11111222 
ADCP,ioos:station:wmo:42390:1,2017-10-15T01:30:00Z,26.1290,-94.8980,27.8,11111222 
ADCP,ioos:station:wmo:42390:1,2017-10-15T02:30:00Z,26.1290,-94.8980,28.3,11111222 
ADCP,ioos:station:wmo:42390:1,2017-10-15T03:30:00Z,26.1290,-94.8980,27.8,11111222 
ADCP,ioos:station:wmo:42390:1,2017-10-15T04:30:00Z,26.1290,-94.8980,27.8,11111222 
ADCP,ioos:station:wmo:42390:1,2017-10-15T05:30:00Z,26.1290,-94.8980,27.8,11111222 
ADCP,ioos:station:wmo:42390:1,2017-10-15T06:30:00Z,26.1290,-94.8980,27.8,11111222 
ADCP,ioos:station:wmo:42390:1,2017-10-15T08:30:00Z,26.1290,-94.8980,27.8,11111222 
ADCP,ioos:station:wmo:42390:1,2017-10-15T09:30:00Z,26.1290,-94.8980,27.8,11111222 
ADCP,ioos:station:wmo:42390:1,2017-10-15T10:30:00Z,26.1290,-94.8980,27.8,11111222 
ADCP,ioos:station:wmo:42390:1,2017-10-15T11:30:00Z,26.1290,-94.8980,27.8,11111222 
ADCP,ioos:station:wmo:42390:1,2017-10-15T12:30:00Z,26.1290,-94.8980,27.8,11111222 
ADCP,ioos:station:wmo:42390:1,2017-10-15T13:30:00Z,26.1290,-94.8980,28.3,11111222 
ADCP,ioos:station:wmo:42390:1,2017-10-15T14:30:00Z,26.1290,-94.8980,28.3,11111222 
ADCP,ioos:station:wmo:42390:1,2017-10-15T15:30:00Z,26.1290,-94.8980,28.3,11111222 
ADCP,ioos:station:wmo:42390:1,2017-10-15T16:30:00Z,26.1290,-94.8980,28.3,11111222 
ADCP,ioos:station:wmo:42390:1,2017-10-15T18:30:00Z,26.1290,-94.8980,27.2,11111222 
ADCP,ioos:station:wmo:42390:1,2017-10-15T19:30:00Z,26.1290,-94.8980,25.6,11111222 
ADCP,ioos:station:wmo:42390:1,2017-10-15T20:30:00Z,26.1290,-94.8980,25.6,11111222 
ADCP,ioos:station:wmo:42390:1,2017-10-15T21:30:00Z,26.1290,-94.8980,25.6,11111222 
ADCP,ioos:station:wmo:42390:1,2017-10-15T22:30:00Z,26.1290,-94.8980,26.1,11111222 
ADCP,ioos:station:wmo:42390:1,2017-10-15T23:30:00Z,26.1290,-94.8980,26.7,11111222 
ADCP,ioos:station:wmo:42390:1,2017-10-16T00:30:00Z,26.1290,-94.8980,27.2,11111222 
ADCP,ioos:station:wmo:42390:1,2017-10-16T01:30:00Z,26.1290,-94.8980,27.2,11111222 
ADCP,ioos:station:wmo:42390:1,2017-10-16T03:30:00Z,26.1290,-94.8980,27.8,11111222 
ADCP,ioos:station:wmo:42390:1,2017-10-16T04:30:00Z,26.1290,-94.8980,27.8,11111222 
ADCP,ioos:station:wmo:42390:1,2017-10-16T05:30:00Z,26.1290,-94.8980,28.3,11111222 
ADCP,ioos:station:wmo:42390:1,2017-10-16T07:30:00Z,26.1290,-94.8980,26.1,11111222 